When you browse on this site, cookies collect data to enhance your experience and personalize the content and advertising you see.
Visit our Privacy Policy to learn more. By continuing to use the site, you agree to this use of cookies and data.
  • In Österreich
  • Länderverzeichnis
  • Für 7 Tage
  • Wassertemperatur
  • Wetterkarte
  • News
  • Widgets
  • user-avatar
    Anmelden

    Stündliche Wetter Naschawar

    Heute, 28 Februar, Freitag

    Zeit Temperatur Niederschläge Wind Luftdruck Luftfeuchtigkeit
    00:00 +19°C° 0.4 mm 2 m/S 730 mmHg 68%
    01:00 +19°C° 0.4 mm 2 m/S 730 mmHg 71%
    02:00 +19°C° 0.4 mm 1 m/S 729 mmHg 75%
    03:00 +18°C° 1 mm 1 m/S 729 mmHg 79%
    04:00 +18°C° 1 mm 1 m/S 729 mmHg 83%
    05:00 +16°C° 0 mm 2 m/S 728 mmHg 87%
    06:00 +16°C° 0.1 mm 1 m/S 729 mmHg 85%
    07:00 +18°C° 0.1 mm 1 m/S 729 mmHg 82%
    08:00 +18°C° 0.1 mm 1 m/S 730 mmHg 79%
    09:00 +19°C° 0.1 mm 1 m/S 730 mmHg 74%
    10:00 +18°C° 0.1 mm 2 m/S 730 mmHg 69%
    11:00 +20°C° 0 mm 2 m/S 731 mmHg 61%
    12:00 +20°C° 0.4 mm 2 m/S 731 mmHg 59%
    13:00 +21°C° 0.4 mm 2 m/S 730 mmHg 57%
    14:00 +21°C° 0.4 mm 2 m/S 730 mmHg 55%
    15:00 +21°C° 0.3 mm 2 m/S 730 mmHg 56%
    16:00 +21°C° 0.3 mm 2 m/S 729 mmHg 56%
    17:00 +21°C° 0 mm 2 m/S 730 mmHg 51%
    18:00 +20°C° 0.2 mm 2 m/S 730 mmHg 56%
    19:00 +20°C° 0.2 mm 1 m/S 730 mmHg 60%
    20:00 +19°C° 0.2 mm 1 m/S 731 mmHg 65%
    21:00 +19°C° 0.4 mm 1 m/S 731 mmHg 67%
    22:00 +18°C° 0.4 mm 1 m/S 731 mmHg 69%
    23:00 +18°C° 0.4 mm 1 m/S 731 mmHg 71%

    Morgen, 29 Februar, Samstag

    Zeit Temperatur Niederschläge Wind Luftdruck Luftfeuchtigkeit
    00:00 +18°C° 0.5 mm 1 m/S 731 mmHg 72%
    01:00 +18°C° 0.5 mm 1 m/S 731 mmHg 73%
    02:00 +18°C° 0.5 mm 1 m/S 730 mmHg 74%
    03:00 +17°C° 0.2 mm 2 m/S 730 mmHg 74%
    04:00 +17°C° 0.2 mm 3 m/S 730 mmHg 74%
    05:00 +17°C° 0.2 mm 3 m/S 729 mmHg 74%
    06:00 +17°C° 0.1 mm 3 m/S 730 mmHg 73%
    07:00 +17°C° 0.1 mm 3 m/S 730 mmHg 72%
    08:00 +17°C° 0.1 mm 3 m/S 730 mmHg 70%
    09:00 +18°C° 0.1 mm 3 m/S 730 mmHg 67%
    10:00 +19°C° 0.1 mm 3 m/S 731 mmHg 63%
    11:00 +20°C° 0.1 mm 4 m/S 731 mmHg 60%
    12:00 +20°C° 0.1 mm 4 m/S 731 mmHg 59%
    13:00 +20°C° 0.1 mm 5 m/S 730 mmHg 58%
    14:00 +20°C° 0.1 mm 5 m/S 730 mmHg 57%
    15:00 +19°C° 0.2 mm 5 m/S 730 mmHg 58%
    16:00 +19°C° 0.2 mm 5 m/S 730 mmHg 60%
    17:00 +17°C° 0.2 mm 6 m/S 730 mmHg 62%
    18:00 +16°C° 0.2 mm 5 m/S 730 mmHg 65%
    19:00 +17°C° 0.2 mm 4 m/S 731 mmHg 68%
    20:00 +16°C° 0.2 mm 3 m/S 731 mmHg 71%
    21:00 +16°C° 0 mm 3 m/S 731 mmHg 70%
    22:00 +16°C° 0 mm 3 m/S 731 mmHg 70%
    23:00 +16°C° 0 mm 2 m/S 731 mmHg 69%

    übermorgen, 1 März, Sonntag

    Zeit Temperatur Niederschläge Wind Luftdruck Luftfeuchtigkeit
    00:00 +16°C° 0 mm 2 m/S 731 mmHg 68%
    01:00 +15°C° 0 mm 2 m/S 731 mmHg 68%
    02:00 +15°C° 0 mm 2 m/S 731 mmHg 68%
    03:00 +15°C° 0 mm 2 m/S 730 mmHg 68%
    04:00 +15°C° 0 mm 2 m/S 730 mmHg 68%
    05:00 +15°C° 0 mm 2 m/S 730 mmHg 68%
    06:00 +15°C° 0 mm 2 m/S 730 mmHg 66%
    07:00 +16°C° 0 mm 1 m/S 731 mmHg 64%
    08:00 +18°C° 0 mm 1 m/S 731 mmHg 62%
    09:00 +19°C° 0 mm 1 m/S 731 mmHg 56%
    10:00 +21°C° 0 mm 1 m/S 732 mmHg 50%
    11:00 +22°C° 0 mm 1 m/S 732 mmHg 44%
    12:00 +23°C° 0 mm 1 m/S 731 mmHg 41%
    13:00 +24°C° 0 mm 1 m/S 731 mmHg 38%
    14:00 +25°C° 0 mm 1 m/S 731 mmHg 34%
    15:00 +25°C° 0 mm 1 m/S 730 mmHg 34%
    16:00 +26°C° 0 mm 1 m/S 730 mmHg 35%
    17:00 +26°C° 0 mm 1 m/S 730 mmHg 35%
    18:00 +24°C° 0 mm 1 m/S 730 mmHg 39%
    19:00 +22°C° 0 mm 1 m/S 730 mmHg 43%
    20:00 +21°C° 0 mm 1 m/S 730 mmHg 46%
    21:00 +20°C° 0 mm 1 m/S 730 mmHg 47%
    22:00 +20°C° 0 mm 1 m/S 730 mmHg 48%
    23:00 +20°C° 0 mm 1 m/S 730 mmHg 48%

    2 März, Montag

    Zeit Temperatur Niederschläge Wind Luftdruck Luftfeuchtigkeit
    00:00 +19°C° 0 mm 1 m/S 730 mmHg 49%
    01:00 +18°C° 0 mm 1 m/S 730 mmHg 50%
    02:00 +18°C° 0 mm 1 m/S 729 mmHg 52%
    03:00 +18°C° 0 mm 1 m/S 729 mmHg 52%
    04:00 +16°C° 0 mm 1 m/S 728 mmHg 52%
    05:00 +16°C° 0 mm 1 m/S 728 mmHg 52%
    06:00 +16°C° 0 mm 1 m/S 728 mmHg 51%
    07:00 +18°C° 0 mm 1 m/S 729 mmHg 50%
    08:00 +19°C° 0 mm 1 m/S 729 mmHg 49%
    09:00 +21°C° 0 mm 1 m/S 729 mmHg 43%
    10:00 +22°C° 0 mm 1 m/S 730 mmHg 38%
    11:00 +24°C° 0 mm 1 m/S 730 mmHg 32%
    12:00 +25°C° 0 mm 1 m/S 729 mmHg 31%
    13:00 +26°C° 0 mm 1 m/S 729 mmHg 29%
    14:00 +27°C° 0 mm 1 m/S 729 mmHg 27%
    15:00 +27°C° 0 mm 1 m/S 728 mmHg 28%
    16:00 +27°C° 0 mm 1 m/S 728 mmHg 29%
    17:00 +27°C° 0 mm 1 m/S 728 mmHg 30%
    18:00 +25°C° 0 mm 1 m/S 728 mmHg 34%
    19:00 +21°C° 0 mm 0 m/S 728 mmHg 39%
    20:00 +19°C° 0 mm 0 m/S 729 mmHg 43%
    21:00 +19°C° 0 mm 0 m/S 729 mmHg 44%
    22:00 +20°C° 0 mm 1 m/S 729 mmHg 45%
    23:00 +20°C° 0 mm 1 m/S 729 mmHg 46%

    3 März, Dienstag

    Zeit Temperatur Niederschläge Wind Luftdruck Luftfeuchtigkeit
    00:00 +19°C° 0 mm 1 m/S 729 mmHg 47%
    01:00 +17°C° 0 mm 0 m/S 729 mmHg 48%
    02:00 +16°C° 0 mm 0 m/S 729 mmHg 49%
    03:00 +16°C° 0 mm 0 m/S 728 mmHg 50%
    04:00 +16°C° 0 mm 1 m/S 728 mmHg 50%
    05:00 +16°C° 0 mm 1 m/S 728 mmHg 50%
    06:00 +18°C° 0 mm 1 m/S 728 mmHg 49%
    07:00 +19°C° 0 mm 1 m/S 728 mmHg 48%
    08:00 +20°C° 0 mm 1 m/S 729 mmHg 46%
    09:00 +21°C° 0 mm 1 m/S 729 mmHg 41%
    10:00 +23°C° 0 mm 1 m/S 729 mmHg 35%
    11:00 +24°C° 0 mm 1 m/S 729 mmHg 30%
    12:00 +25°C° 0 mm 1 m/S 729 mmHg 28%
    13:00 +26°C° 0 mm 1 m/S 728 mmHg 26%
    14:00 +27°C° 0 mm 1 m/S 728 mmHg 24%
    15:00 +27°C° 0 mm 1 m/S 727 mmHg 25%
    16:00 +27°C° 0 mm 1 m/S 727 mmHg 26%
    17:00 +27°C° 0 mm 1 m/S 726 mmHg 27%
    18:00 +25°C° 0 mm 1 m/S 726 mmHg 31%
    19:00 +22°C° 0 mm 0 m/S 727 mmHg 35%
    20:00 +20°C° 0 mm 0 m/S 727 mmHg 39%
    21:00 +21°C° 0 mm 1 m/S 727 mmHg 40%
    22:00 +21°C° 0 mm 1 m/S 727 mmHg 42%
    23:00 +20°C° 0 mm 1 m/S 727 mmHg 43%

    4 März, Mittwoch

    Zeit Temperatur Niederschläge Wind Luftdruck Luftfeuchtigkeit
    00:00 +20°C° 0.1 mm 1 m/S 726 mmHg 45%
    01:00 +19°C° 0.1 mm 1 m/S 726 mmHg 47%
    02:00 +17°C° 0.1 mm 0 m/S 726 mmHg 49%
    03:00 +19°C° 0.2 mm 1 m/S 726 mmHg 50%
    04:00 +19°C° 0.2 mm 1 m/S 726 mmHg 51%
    05:00 +18°C° 0.2 mm 1 m/S 726 mmHg 52%
    06:00 +19°C° 0.1 mm 1 m/S 726 mmHg 52%
    07:00 +20°C° 0.1 mm 1 m/S 726 mmHg 52%
    08:00 +20°C° 0.1 mm 1 m/S 727 mmHg 53%
    09:00 +21°C° 0.1 mm 1 m/S 727 mmHg 49%
    10:00 +21°C° 0.1 mm 2 m/S 727 mmHg 46%
    11:00 +23°C° 0.1 mm 2 m/S 728 mmHg 43%
    12:00 +23°C° 0.2 mm 2 m/S 727 mmHg 42%
    13:00 +22°C° 0.2 mm 3 m/S 727 mmHg 41%
    14:00 +24°C° 0.2 mm 3 m/S 726 mmHg 40%
    15:00 +22°C° 0.2 mm 3 m/S 726 mmHg 42%
    16:00 +21°C° 0.2 mm 4 m/S 726 mmHg 45%
    17:00 +20°C° 0.2 mm 4 m/S 725 mmHg 47%
    18:00 +19°C° 0.2 mm 3 m/S 725 mmHg 52%
    19:00 +18°C° 0.2 mm 2 m/S 726 mmHg 57%
    20:00 +18°C° 0.2 mm 1 m/S 726 mmHg 61%
    21:00 +17°C° 0.6 mm 2 m/S 726 mmHg 65%
    22:00 +17°C° 0.6 mm 3 m/S 726 mmHg 69%
    23:00 +15°C° 0.6 mm 4 m/S 726 mmHg 73%
    Mehr zeigen